TimeMST,TemperatureF,Dew PointF,Humidity,Sea Level PressureIn,VisibilityMPH,Wind Direction,Wind SpeedMPH,Gust SpeedMPH,PrecipitationIn,Events,Conditions,WindDirDegrees,DateUTC
12:10 AM,14.0,10.4,86,29.63,2.5,NW,4.6,-,0.00,Snow,Light Snow,310,2012-12-27 07:10:00
12:53 AM,12.9,10.0,88,29.77,2.5,NNW,6.9,-,0.01,Snow,Light Snow,330,2012-12-27 07:53:00
1:01 AM,12.2,10.4,92,29.64,3.0,NNW,5.8,-,0.00,Snow,Light Snow,340,2012-12-27 08:01:00
1:08 AM,12.2,8.6,85,29.64,2.0,NNW,6.9,-,0.00,Snow,Light Snow,340,2012-12-27 08:08:00
1:19 AM,12.2,8.6,85,29.64,1.8,NNW,4.6,-,0.00,Snow,Light Snow,340,2012-12-27 08:19:00
1:21 AM,12.2,8.6,85,29.64,2.0,NNW,4.6,-,0.00,Snow,Light Snow,340,2012-12-27 08:21:00
1:27 AM,12.2,8.6,85,29.64,3.0,NNW,4.6,-,0.00,Snow,Light Snow,340,2012-12-27 08:27:00
1:39 AM,12.2,8.6,85,29.64,4.0,NNW,4.6,-,0.00,Snow,Light Snow,330,2012-12-27 08:39:00
1:53 AM,12.9,9.0,84,29.79,3.0,Calm,Calm,-,0.00,Snow,Light Snow,0,2012-12-27 08:53:00
2:02 AM,12.2,8.6,85,29.65,2.5,Calm,Calm,-,0.01,Snow,Light Snow,0,2012-12-27 09:02:00
2:12 AM,12.2,8.6,85,29.65,3.0,Calm,Calm,-,0.01,Snow,Light Snow,0,2012-12-27 09:12:00
2:28 AM,12.2,8.6,85,29.66,2.0,Calm,Calm,-,0.01,Snow,Light Snow,0,2012-12-27 09:28:00
2:50 AM,12.2,8.6,85,29.67,2.0,West,3.5,-,0.01,Snow,Light Snow,260,2012-12-27 09:50:00
2:53 AM,12.9,9.0,84,29.81,1.8,West,3.5,-,0.01,Snow,Light Snow,260,2012-12-27 09:53:00
3:24 AM,12.2,8.6,85,29.67,2.5,West,3.5,-,0.00,Snow,Light Snow,260,2012-12-27 10:24:00
3:53 AM,12.0,8.1,84,29.82,2.5,WNW,3.5,-,0.01,Snow,Light Snow,290,2012-12-27 10:53:00
4:07 AM,12.2,8.6,85,29.67,3.0,Calm,Calm,-,0.00,Snow,Light Snow,0,2012-12-27 11:07:00
4:26 AM,12.2,8.6,85,29.67,2.0,Calm,Calm,-,N/A,Snow,Light Snow,0,2012-12-27 11:26:00
4:36 AM,12.2,8.6,85,29.67,1.5,Calm,Calm,-,0.00,Snow,Light Snow,0,2012-12-27 11:36:00
4:53 AM,12.0,8.1,84,29.82,1.0,Calm,Calm,-,0.01,Snow,Light Snow,0,2012-12-27 11:53:00
5:53 AM,12.9,9.0,84,29.84,1.5,Calm,Calm,-,0.02,Snow,Light Snow,0,2012-12-27 12:53:00
6:00 AM,12.2,8.6,85,29.68,1.0,Calm,Calm,-,0.00,Snow,Light Snow,0,2012-12-27 13:00:00
6:24 AM,12.2,8.6,85,29.69,1.2,Calm,Calm,-,0.00,Snow,Light Snow,0,2012-12-27 13:24:00
6:53 AM,12.0,8.1,84,29.86,1.2,Calm,Calm,-,0.01,Snow,Light Snow,0,2012-12-27 13:53:00
7:24 AM,12.2,8.6,85,29.70,2.0,Calm,Calm,-,0.01,Snow,Light Snow,0,2012-12-27 14:24:00
7:39 AM,10.4,6.8,85,29.70,1.2,NE,4.6,-,0.01,Snow,Light Snow,50,2012-12-27 14:39:00
7:53 AM,10.4,6.8,85,29.71,1.2,NE,3.5,-,N/A,Snow,Light Snow,40,2012-12-27 14:53:00
8:29 AM,10.4,6.8,85,29.72,2.0,ENE,4.6,-,N/A,Snow,Light Snow,60,2012-12-27 15:29:00
8:53 AM,10.9,6.1,81,29.91,2.0,Calm,Calm,-,0.01,Snow,Light Snow,0,2012-12-27 15:53:00
9:03 AM,10.4,6.8,85,29.73,4.0,Calm,Calm,-,0.00,Snow,Light Snow,0,2012-12-27 16:03:00
9:53 AM,12.0,7.0,80,29.95,7.0,Calm,Calm,-,0.00,,Overcast,0,2012-12-27 16:53:00
10:53 AM,12.9,7.0,77,29.95,3.0,Calm,Calm,-,0.00,Snow,Light Snow,0,2012-12-27 17:53:00
11:06 AM,15.8,8.6,73,29.76,1.8,Calm,Calm,-,0.00,Snow,Light Snow,0,2012-12-27 18:06:00
11:17 AM,14.0,10.4,86,29.76,2.0,Calm,Calm,-,0.00,Snow,Light Snow,0,2012-12-27 18:17:00
11:24 AM,15.8,10.4,79,29.76,1.8,Calm,Calm,-,0.00,Snow,Light Snow,0,2012-12-27 18:24:00
11:40 AM,17.6,10.4,73,29.76,1.2,WSW,3.5,-,0.00,Snow,Light Snow,240,2012-12-27 18:40:00
11:53 AM,17.1,12.0,81,29.93,1.2,West,3.5,-,0.00,Snow,Light Snow,260,2012-12-27 18:53:00
12:26 PM,17.6,12.2,79,29.75,5.0,Calm,Calm,-,0.01,Snow,Light Snow,0,2012-12-27 19:26:00
12:30 PM,19.4,12.2,74,29.75,1.5,WNW,4.6,-,0.01,Snow,Light Snow,290,2012-12-27 19:30:00
12:37 PM,17.6,12.2,79,29.75,2.0,WNW,4.6,-,0.01,Snow,Light Snow,300,2012-12-27 19:37:00
12:53 PM,18.0,12.9,81,29.91,2.0,WNW,5.8,-,0.01,Snow,Light Snow,300,2012-12-27 19:53:00
1:11 PM,17.6,12.2,79,29.75,2.0,West,5.8,-,0.00,Snow,Light Snow,280,2012-12-27 20:11:00
1:19 PM,17.6,12.2,79,29.75,3.0,WNW,3.5,-,0.00,Snow,Light Snow,290,2012-12-27 20:19:00
1:30 PM,19.4,12.2,74,29.75,2.0,NW,4.6,-,0.00,Snow,Light Snow,310,2012-12-27 20:30:00
1:40 PM,19.4,12.2,74,29.76,1.8,NW,5.8,-,0.00,Snow,Light Snow,310,2012-12-27 20:40:00
1:48 PM,17.6,12.2,79,29.76,2.0,WNW,6.9,-,0.00,Snow,Light Snow,300,2012-12-27 20:48:00
1:53 PM,18.0,12.9,81,29.93,2.0,NW,4.6,-,0.00,Snow,Light Snow,310,2012-12-27 20:53:00
2:00 PM,17.6,12.2,79,29.76,1.2,West,3.5,-,0.00,Snow,Light Snow,270,2012-12-27 21:00:00
2:11 PM,17.6,12.2,79,29.76,3.0,West,5.8,-,0.01,Snow,Light Snow,280,2012-12-27 21:11:00
2:53 PM,18.0,12.0,78,29.95,8.0,Calm,Calm,-,0.01,,Mostly Cloudy,0,2012-12-27 21:53:00
3:22 PM,17.6,12.2,79,29.78,2.5,SW,3.5,-,0.00,Snow,Light Snow,220,2012-12-27 22:22:00
3:30 PM,17.6,12.2,79,29.79,5.0,SW,3.5,-,0.00,Snow,Light Snow,220,2012-12-27 22:30:00
3:51 PM,17.6,12.2,79,29.80,1.5,Calm,Calm,-,0.00,Snow,Light Snow,0,2012-12-27 22:51:00
3:53 PM,17.1,12.9,84,29.98,1.2,Calm,Calm,-,0.00,Snow,Light Snow,0,2012-12-27 22:53:00
4:05 PM,17.6,12.2,79,29.80,2.0,SW,3.5,-,0.00,Snow,Light Snow,220,2012-12-27 23:05:00
4:53 PM,15.8,12.2,86,29.81,5.0,SSW,3.5,-,N/A,Snow,Light Snow,210,2012-12-27 23:53:00
5:53 PM,12.0,9.0,88,30.02,10.0,SW,4.6,-,N/A,,Overcast,230,2012-12-28 00:53:00
6:53 PM,10.9,7.0,84,30.05,10.0,WSW,5.8,-,N/A,,Overcast,250,2012-12-28 01:53:00
7:53 PM,15.8,10.4,79,29.85,10.0,SW,8.1,-,N/A,,Overcast,230,2012-12-28 02:53:00
8:53 PM,15.1,10.9,84,30.05,10.0,WSW,8.1,-,N/A,,Overcast,240,2012-12-28 03:53:00
9:53 PM,16.0,10.9,81,30.06,10.0,WSW,8.1,-,N/A,,Overcast,240,2012-12-28 04:53:00
10:53 PM,16.0,10.9,81,30.06,10.0,WSW,8.1,-,N/A,,Overcast,240,2012-12-28 05:53:00
11:53 PM,10.0,6.1,84,30.07,10.0,WSW,9.2,-,N/A,,Partly Cloudy,250,2012-12-28 06:53:00